TimeEDT,TemperatureF,Dew PointF,Humidity,Sea Level PressureIn,VisibilityMPH,Wind Direction,Wind SpeedMPH,Gust SpeedMPH,PrecipitationIn,Events,Conditions,WindDirDegrees,DateUTC
12:54 AM,46.0,43.0,89,29.97,10.0,Calm,Calm,-,N/A,,Clear,0,2012-10-18 04:54:00
1:54 AM,45.0,42.1,90,29.97,8.0,NNW,3.5,-,N/A,,Clear,340,2012-10-18 05:54:00
2:54 AM,45.0,43.0,93,29.96,9.0,Calm,Calm,-,N/A,,Clear,0,2012-10-18 06:54:00
3:54 AM,44.1,42.1,93,29.96,8.0,Calm,Calm,-,N/A,,Clear,0,2012-10-18 07:54:00
4:54 AM,45.0,42.1,90,29.97,8.0,Calm,Calm,-,N/A,,Clear,0,2012-10-18 08:54:00
5:54 AM,46.9,45.0,93,29.98,10.0,Calm,Calm,-,N/A,,Mostly Cloudy,0,2012-10-18 09:54:00
6:54 AM,48.9,45.0,86,29.99,10.0,Calm,Calm,-,N/A,,Mostly Cloudy,0,2012-10-18 10:54:00
7:54 AM,48.9,46.0,90,29.99,10.0,Calm,Calm,-,N/A,,Clear,0,2012-10-18 11:54:00
8:54 AM,55.0,48.9,80,29.99,10.0,SSE,5.8,-,N/A,,Scattered Clouds,150,2012-10-18 12:54:00
9:54 AM,57.9,51.1,78,30.00,10.0,South,5.8,-,N/A,,Partly Cloudy,170,2012-10-18 13:54:00
10:13 AM,57.2,51.8,82,29.99,10.0,Calm,Calm,-,N/A,,Mostly Cloudy,0,2012-10-18 14:13:00
10:52 AM,60.8,51.8,72,29.98,10.0,ESE,6.9,-,N/A,,Partly Cloudy,110,2012-10-18 14:52:00
10:54 AM,60.1,52.0,75,30.00,10.0,ESE,4.6,-,N/A,,Scattered Clouds,120,2012-10-18 14:54:00
11:54 AM,63.0,52.0,67,29.99,10.0,SSE,11.5,17.3,N/A,,Scattered Clouds,150,2012-10-18 15:54:00
12:54 PM,66.0,52.0,60,29.96,10.0,SSE,9.2,-,N/A,,Scattered Clouds,150,2012-10-18 16:54:00
1:54 PM,66.9,48.0,51,29.92,10.0,SE,9.2,20.7,N/A,,Clear,140,2012-10-18 17:54:00
2:54 PM,69.1,48.0,47,29.90,10.0,SE,10.4,18.4,N/A,,Clear,140,2012-10-18 18:54:00
3:54 PM,68.0,46.0,45,29.90,10.0,SSE,12.7,-,N/A,,Scattered Clouds,160,2012-10-18 19:54:00
4:54 PM,68.0,48.9,50,29.91,10.0,SSE,9.2,-,N/A,,Partly Cloudy,150,2012-10-18 20:54:00
5:54 PM,66.0,48.9,54,29.92,10.0,SSE,10.4,-,N/A,,Mostly Cloudy,160,2012-10-18 21:54:00
7:54 PM,64.0,52.0,65,29.94,10.0,SE,11.5,19.6,N/A,,Mostly Cloudy,130,2012-10-18 23:54:00
8:54 PM,64.0,53.1,67,29.91,10.0,ESE,8.1,-,0.00,,Overcast,120,2012-10-19 00:54:00
10:54 PM,62.1,57.9,86,29.88,10.0,ESE,5.8,-,0.00,,Overcast,120,2012-10-19 02:54:00
11:54 PM,63.0,57.9,84,29.85,10.0,ESE,9.2,-,N/A,,Overcast,110,2012-10-19 03:54:00